Regional Weather Roundup
Issued by NWS New Orleans/Baton Rouge, LA

Home | Current Version | Previous Version | Graphics & Text | Print | Product List | Glossary On
Versions: 1 2 3 4 5 6 7 8 9 10 11 12 13 14 15 16 17 18 19 20 21 22 23 24 25 26 27 28 29 30 31 32 33 34 35 36 37 38 39 40 41 42 43 44 45 46 47 48 49 50
093
ASUS44 KLIX 271610
RWRLIX
NEW ORLEANS REGIONAL WEATHER ROUNDUP
NATIONAL WEATHER SERVICE NEW ORLEANS LA
1000 AM CST THU NOV 27 2014

NOTE: "FAIR" INDICATES FEW OR NO CLOUDS BELOW 12,000 FEET WITH NO
      SIGNIFICANT WEATHER AND/OR OBSTRUCTIONS TO VISIBILITY.
      SKY/WX - SKY CONDITION AND SIGNIFICANT WEATHER.
      TMP - AIR TEMPERATURE.     DP    - DEWPOINT TEMPERATURE.
      RH  - RELATIVE HUMIDITY.   PRES  - PRESSURE.
      HI  - HEAT INDEX.          WCI   - WIND CHILL INDEX.

*  THESE STATIONS ARE NOT NWS OR FAA STATIONS AND ARE NOT UNDER
   NWS QUALITY CONTROL.

LAZ038-040-048-061>063-065>067-069-271700-
SOUTHEAST LOUISIANA

CITY           SKY/WX    TMP DP  RH WIND       PRES   REMARKS
N.O. AUDUBON     N/A     57  37  45 MISG        N/A
N.O. INTL ARPT SUNNY     55  34  45 N18       30.45S
N.O. LAKEFRONT SUNNY     56  36  47 N17       30.46R
N.O. DOWNTOWN*   N/A     54  34  47 N9G18     30.45S
SLIDELL        SUNNY     54  32  43 NE14G22   30.44S
BATON ROUGE    SUNNY     53  31  42 N9        30.47S
BOOTHVILLE     SUNNY     56  37  49 N13G22    30.44R
BELLE CHASSE   SUNNY     57  31  37 N9G17     30.44R
BOGALUSA*        N/A     54  31  42 N13       30.47S
NEW ROADS*       N/A     53  31  42 N9        30.48S
GONZALES*        N/A     54  33  45 N7        30.46S
HAMMOND*       SUNNY     54  30  40 N12       30.47F
HOUMA*         SUNNY     57  37  47 N14       30.45S
PORT FOURCHON* SUNNY     57  43  58 N16       30.47R

$$

MSZ070-080>082-271700-
SOUTHERN MISSISSIPPI

CITY           SKY/WX    TMP DP  RH WIND       PRES   REMARKS
MCCOMB         SUNNY     49  29  46 N13       30.47R
GULFPORT       SUNNY     54  33  45 N14       30.42R
BILOXI         SUNNY     55  34  45 VRB6      30.42R
PASCAGOULA     SUNNY     55  34  45 N14G22    30.41R
STENNIS ARPT*  SUNNY     54  28  37 N12G18    30.44R

$$

COASTAL OBSERVATIONS
LAKE AND NEARSHORE STATIONS

STATION/POSITION TIME  TEMP    WIND        PRES    WAVE
                       AIR SEA DIR/SP/G            HT/PER
                 (UTC) (F)     (DEG/KT/KT) (MB)    (FT/S)
PASCAGOULA       1600   54     360/  8/ 13 1029.3
WAVELAND YACHT   1600   51     360/ 15/ 19 1029.8
GRAND ISLE       1600   56 59   10/ 14/ 18 1030.9
SOUTHWEST PASS   1600   58                 1030.8
NEW CANAL        1600   51 54   10/ 14/ 17 1031.5
SHELL BEACH      1600   52 52   10/ 15/ 16 1030.6

OFFSHORE STATIONS

STATION/POSITION TIME  TEMP    WIND        PRES    WAVE
                       AIR SEA DIR/SP/G            HT/PER
                 (UTC) (F)     (DEG/KT/KT) (MB)    (FT/S)
64 S DAUPHIN ISL 1457   59 70  350/ 17/ 23 1030.0    5/ 6

$$




USA.gov is the U.S. government's official web portal to all federal, state and local government web resources and services.